Regional Weather Roundup
Issued by NWS

Home | Current Version | Previous Version | Graphics & Text | Print | Product List | Glossary Off
Versions: 1 2 3 4 5 6 7 8 9 10 11 12 13 14 15 16 17 18 19 20 21 22 23 24 25 26 27 28 29 30 31 32 33 34 35 36 37 38 39 40 41 42 43 44 45 46 47 48 49 50

779
ASUS43 KMKX 202300
RWRWI

WISCONSIN REGIONAL WEATHER ROUNDUP
NATIONAL WEATHER SERVICE MILWAUKEE/SULLIVAN WI
600 PM CDT WED SEP 20 2017

NOTE: "FAIR" INDICATES FEW OR NO CLOUDS BELOW 12,000 FEET WITH NO
SIGNIFICANT WEATHER AND/OR OBSTRUCTIONS TO VISIBILITY.

WIZ001-002-006>008-014>016-023>028-210000-
NORTHWEST WISCONSIN

CITY           SKY/WX    TMP DP  RH WIND       PRES   REMARKS
SUPERIOR ARPT  SUNNY     71  49  45 W10G17    29.81R
ASHLAND        SUNNY     73  57  57 W7        29.82R
HAYWARD        SUNNY     72  56  57 W8        29.85R
SIREN          SUNNY     72  51  46 W6        29.85R
CUMBERLAND     SUNNY     70  50  49 W10       29.85R
RICE LAKE      SUNNY     74  54  49 W6        29.86R
CHETEK         SUNNY     74  56  53 W5        29.84R
LADYSMITH      PTSUNNY   72  60  66 W3        29.86R
EAU CLAIRE     SUNNY     74  59  59 W5        29.83R
MENOMONIE      MOSUNNY   74  54  49 W8        29.83S
NEW RICHMOND   SUNNY     72  49  43 W7        29.86R
OSCEOLA        SUNNY     73  49  42 W7        29.87S
$$

WIZ003>005-009-010-017-018-210000-
NORTH CENTRAL WISCONSIN

CITY           SKY/WX    TMP DP  RH WIND       PRES   REMARKS
MANITOWISH WTR CLOUDY    69  69 100 CALM      29.84S
ARBOR VITAE    MOCLDY    72  70  95 CALM      29.84R FOG
WOODRUFF       MOCLDY    72  70  95 CALM      29.84R FOG
RHINELANDER    CLOUDY    72  69  90 SW3       29.86R
EAGLE RIVER    CLOUDY    68  68 100 CALM      29.85R FOG
LAND O LAKES   CLOUDY    68  67  98 CALM      29.87R FOG
PHILLIPS       MOSUNNY   71  65  81 W3        29.85R
TOMAHAWK         N/A     72  67  84 CALM      29.84S
MEDFORD        MOSUNNY   71  65  82 NW8       29.86R
MERRILL          N/A    N/A N/A N/A S3        29.84R
$$

WIZ029-030-035-036-043>047-210000-
CENTRAL WISCONSIN

CITY           SKY/WX    TMP DP  RH WIND       PRES   REMARKS
WAUSAU         LGT RAIN  74  71  91 S3        29.82R
MOSINEE        NOT AVBL
MARSHFIELD     LGT RAIN  73  67  81 SW3       29.83R
STEVENS POINT  TSTM      72  68  88 SW16      29.84R
WAUPACA        CLOUDY    79  76  89 CALM      29.80R HX  83
WAUTOMA        CLOUDY    79  76  90 NW7       29.82R THUNDER HX  83
WISC RAPIDS    CLOUDY    70  69  97 S5        29.83F
CAMP DOUGLAS   NOT AVBL
$$

WIZ011>013-019>022-031-037>040-048>050-210000-
NORTHEAST WISCONSIN

CITY           SKY/WX    TMP DP  RH WIND       PRES   REMARKS
ANTIGO         LGT RAIN  70  70 100 CALM      29.85R
SHAWANO        CLOUDY    77  71  80 CALM      29.81R
OCONTO         CLOUDY    74  66  77 SE6       29.82S
STURGEON BAY   CLEAR     73  66  78 S14G22    29.85R
GREEN BAY      CLOUDY    77  70  79 SE9       29.81F
MANITOWOC      CLEAR     73  67  81 S9        29.85R
APPLETON       MOCLDY    77  66  69 SE8       29.79S THUNDER
CLINTONVILLE   CLOUDY    73  68  83 SE6       29.80R
OSHKOSH        CLOUDY    80  70  71 SE6       29.80R THUNDER HX  83
$$

WIZ032>034-041-042-053>061-210000-
SOUTHWEST WISCONSIN

CITY           SKY/WX    TMP DP  RH WIND       PRES   REMARKS
LA CROSSE      PTSUNNY   79  64  61 NW14        N/A  HX  81
SPARTA         CLOUDY    74  72  93 CALM      29.82R
VIROQUA        CLOUDY    78  73  84 CALM      29.82R HX  80
BOSCOBEL       MOSUNNY   86  72  62 CALM      29.78S HX  92
PRAIRIE DU CHI CLOUDY    85  68  57 CALM      29.77S HX  88
PLATTEVILLE    CLOUDY    86  71  61 S8        29.81S HX  91
$$

WIZ056-057-062-063-064-067-068-210000-
SOUTH CENTRAL WISCONSIN

CITY           SKY/WX    TMP DP  RH WIND       PRES   REMARKS
REEDSBURG      CLOUDY    84  72  66 S6        29.80R HX  89
BARABOO/DELLS  NOT AVBL
LONE ROCK      PTSUNNY   83  76  79 CALM      29.79R HX  91
MINERAL POINT  MOSUNNY   88  72  58 S7        29.82S HX  94
MADISON        MOCLDY    87  70  56 S5        29.80R HX  92
MIDDLETON      PTCLDY    87  69  54 SW6       29.80S HX  91
WATERTOWN      CLEAR     88  69  53 S10G18    29.81R HX  92
MONROE         MOCLDY    88  68  51 S14       29.82R HX  91
JANESVILLE     NOT AVBL
$$

WIZ051-052-058>065-066-070>072-210000-
SOUTHEAST WISCONSIN

CITY           SKY/WX    TMP DP  RH WIND       PRES   REMARKS
MILWAUKEE      PTCLDY    83  69  62 S14       29.81F HX  86
WAUKESHA       CLEAR     84  64  51 SE14G23   29.83R HX  86
MILWAUKEE/TIMM CLEAR     84  64  51 S9        29.82S HX  86
RACINE         CLEAR     79  69  71 S12G20    29.85S HX  81
BURLINGTON     CLEAR     89  68  51 S9G16     29.82S HX  92
KENOSHA        CLEAR     86  68  54 S9        29.83F HX  89
FOND DU LAC    CLOUDY    83  69  62 SE7       29.80R HX  86
SHEBOYGAN      CLEAR     75  70  84 S13       29.83R
WEST BEND        N/A     81  70  69 SE7       29.82R HX  84
JUNEAU         CLOUDY    87  70  56 S9G18     29.82R HX  91
$$

LSZ147-162-210000-
LAKE SUPERIOR

STATION/POSITION TIME  TEMP    WIND        PRES    WAVE
                       AIR SEA DIR/SP/G            HT/PER
                 (UTC) (F)     (DEG/KT/KT) (MB)    (FT/S)
W MID LAKE BUOY  2150   61 55  230/ 12/ 12 1007.7R   2/ 4
DEVILS ISLAND    2200   66     240/ 15/ 17 1008.1R
SAXON HARBOR     2240   72     200/  2/  4 1009.1R
$$

LMZ867-665-643>646-210000-
LAKE MICHIGAN

STATION/POSITION TIME  TEMP    WIND        PRES    WAVE
                       AIR SEA DIR/SP/G            HT/PER
                 (UTC) (F)     (DEG/KT/KT) (MB)    (FT/S)
S GREEN BAY BUOY 2230   72 66  170/ 12/ 16 1009.7R
N MID LAKE BUOY  2150   67 65  130/  4/  6 1011.0F   2/ 4
NORTHPORT PIER   2240   73     160/  7/ 13 1010.8R
KEWAUNEE LAKESHO 2230   69     190/  8/ 10 1009.9R
SHEBOYGAN LAKESH 2200   68     180/ 13/ 13 1009.2F
PORT WASHINGTON  2240   73     180/  7/ 10 1010.5F
ATWATER BUOY     2139   71 67  160/ 17/ 23 1009.9F
MILWAUKEE LAKESH 2230   73     150/ 17/ 18   N/A
S MID LAKE BUOY  2150   73 69  120/ 14/ 16 1011.0F   1/ 3
KENOSHA   LAKESH 2200   74     180/ 13/ 16 1010.2
$$

TC  - TEMPERATURE IN CELSIUS
VSB - VISIBILITY IN STATUTE MILES
WCI - WIND CHILL INDEX
HX  - HEAT INDEX





USA.gov is the U.S. government's official web portal to all federal, state and local government web resources and services.